Location: Bishopstone
(51.0167°N, 1.9000°W)
Time: 14:24:55
(UTC+00:00)

SL-16 R/B - Pass Details

Date: 16 September 2019
Orbit: 840 x 849 km, 71.0° (Epoch: 15 October)

Event Time Altitude Azimuth Distance (km) Brightness Sun altitude
Rises 22:22:31 0° 322° (NW) 3,416 6.4 -32.4°
Reaches altitude 10° 22:25:23 10° 309° (NW) 2,478 5.4 -32.6°
Enters shadow 22:29:29 24° 263° (W) 1,687 3.9 -33.0°
